This demonstration page uses our WeatherBlox Daily Observations layout. Learn more.

Left ArrowRight Arrow

Hourly Observations for April 26, 2022

Temp ( °F °C ) Dew Point ( °F °C ) Humidity (%) Winds ( mph kmh ) Pressure ( in mb ) Visibility ( mi km ) Precip ( " mm )
12:56 am 00:56 Clear 40 4.2 20 -6.4 46 46 Calm 30.41 1030 10 16 0.00 0.00
1:56 am 01:56 Clear 38 3.3 21 -5.9 51 51 Calm 30.41 1030 10 16 0.00 0.00
2:56 am 02:56 Clear 35 1.9 23 -5 61 61 Calm 30.41 1030 10 16 0.00 0.00
3:56 am 03:56 Clear 35 1.5 22 -5.4 61 61 Calm 30.41 1030 10 16 0.00 0.00
4:56 am 04:56 Clear 33 0.8 24 -4.4 69 69 Calm 30.41 1030 10 16 0.00 0.00
5:56 am 05:56 Clear 31 -0.3 25 -3.8 78 78 Calm 30.41 1030 10 16 0.00 0.00
6:56 am 06:56 Sunny 32 0.2 26 -3.4 77 77 Calm 30.45 1031 10 16 0.00 0.00
7:56 am 07:56 Sunny 36 2.2 29 -1.6 76 76 Calm 30.48 1032 10 16 0.00 0.00
8:56 am 08:56 Sunny 41 5.1 24 -4.2 51 51 Calm 30.47 1032 10 16 0.00 0.00
9:56 am 09:56 Sunny 47 8.4 25 -4.1 41 41 Calm 30.46 1031 10 16 0.00 0.00
10:56 am 10:56 Sunny 53 11.5 23 -5.1 31 31 Calm 30.42 1030 9 14 0.00 0.00
11:56 am 11:56 Mostly Sunny 56 13.6 24 -4.6 28 28 SE 5 7 30.39 1029 9 14 0.00 0.00
12:56 pm 12:56 Sunny 61 16.1 24 -4.5 24 24 SE 9 15 30.35 1028 9 14 0.00 0.00
1:56 pm 13:56 Mostly Sunny 65 18.5 23 -4.9 20 20 S 6 9 30.31 1026 7 11 0.00 0.00
2:59 pm 14:59 Sunny 70 21 23 -5 17 17 SW 6 9 30.25 1024 10 16 0.00 0.00
3:56 pm 15:56 Sunny 71 21.4 22 -5.5 16 16 SW 10 17 30.23 1024 10 16 0.00 0.00
4:56 pm 16:56 Sunny 72 22 22 -5.8 15 15 WSW 12 19 30.20 1023 10 16 0.00 0.00
5:56 pm 17:56 Sunny 71 21.8 21 -6 15 15 S 12 19 30.18 1022 9 14 0.00 0.00
6:56 pm 18:56 Mostly Sunny 70 21 22 -5.8 16 16 S 7 11 30.17 1022 10 16 0.00 0.00
7:56 pm 19:56 Mostly Sunny 67 19.6 25 -4 20 20 S 7 11 30.16 1021 10 16 0.00 0.00
8:56 pm 20:56 Clear 63 17.3 26 -3.5 24 24 S 6 9 30.16 1021 10 16 0.00 0.00
9:56 pm 21:56 Clear 57 14.1 25 -3.7 29 29 SSE 9 15 30.17 1022 10 16 0.00 0.00
10:56 pm 22:56 Clear 57 14.1 29 -1.9 33 33 Calm 30.16 1022 10 16 0.00 0.00

Powered by AerisWeather